FW4298 Weather Reports


Display with metric or nautical units.
time (UTC)temp
F
wind
direction
speed
MPH
gust
MPH
rain 1hr
in
rain 24hr
in
rain mn
in
humidity
%
barometer
mb
20260507141817 57 41 5.0 12.0 0.00 0.00 0.00 92 1020.6
20260507141317 56 331 5.0 12.0 0.00 0.00 0.00 92 1020.9
20260507140817 56 92 5.0 11.0 0.00 0.00 0.00 92 1020.5
20260507140314 56 28 6.0 15.0 0.00 0.00 0.00 92 1020.3
20260507135810 56 22 6.0 15.0 0.00 0.00 0.00 93 1020.4
20260507135310 56 33 7.0 13.0 0.00 0.00 0.00 93 1020.4
20260507134808 56 32 7.0 13.0 0.00 0.00 0.00 93 1020.3
20260507134307 56 24 6.0 12.0 0.00 0.00 0.00 93 1020.2
20260507133805 56 9 5.0 11.0 0.00 0.00 0.00 94 1020.2
20260507133258 56 345 5.0 13.0 0.00 0.00 0.00 94 1020.1
20260507132752 56 27 7.0 14.0 0.00 0.00 0.00 94 1019.9
20260507132245 56 24 7.0 14.0 0.00 0.00 0.00 94 1019.7
20260507131959 56 9 7.0 14.0 0.00 0.00 0.00 94 1020.0
20260507131507 56 339 8.0 14.0 0.00 0.00 0.00 94 1019.9
20260507131450 56 11 7.0 14.0 0.00 0.00 0.00 94 1019.9
20260507130240 56 334 7.0 14.0 0.00 0.00 0.00 94 1020.0
20260507125738 56 310 6.0 13.0 0.00 0.00 0.00 94 1020.1
20260507125517 56 9 5.0 13.0 0.00 0.00 0.00 94 1020.3
20260507124735 56 0 5.0 13.0 0.00 0.00 0.00 95 1020.1
20260507124236 56 9 6.0 13.0 0.00 0.00 0.00 95 1020.0
20260507123954 56 14 7.0 15.0 0.00 0.00 0.00 94 1019.9
20260507123234 56 337 6.0 15.0 0.00 0.00 0.00 94 1019.9
20260507122734 56 310 6.0 15.0 0.00 0.00 0.00 94 1020.0
20260507122235 56 350 6.0 15.0 0.00 0.00 0.00 94 1019.6
20260507121734 56 338 7.0 15.0 0.00 0.00 0.00 94 1019.5
20260507121234 56 348 6.0 15.0 0.00 0.00 0.00 94 1019.4
20260507120734 56 19 6.0 13.0 0.00 0.00 0.00 94 1019.6
20260507120233 56 9 6.0 17.0 0.00 0.00 0.00 94 1019.4
20260507115734 56 336 6.0 17.0 0.00 0.00 0.00 94 1019.3
20260507115509 56 12 6.0 15.0 0.00 0.00 0.00 94 1018.9
20260507115448 56 18 6.0 12.0 0.00 0.00 0.00 93 1019.0
20260507115207 56 14 7.0 12.0 0.00 0.00 0.00 93 1019.0
20260507074659 58 63 3.0 10.0 0.00 0.00 0.00 91 1017.3
20260507074154 58 22 2.0 10.0 0.00 0.00 0.00 91 1017.3
20260507073647 58 38 4.0 10.0 0.00 0.00 0.00 91 1017.2
20260507073147 58 11 4.0 10.0 0.00 0.00 0.00 90 1017.0
20260507072648 58 10 3.0 9.0 0.00 0.00 0.00 90 1017.0
20260507072147 58 17 3.0 7.0 0.00 0.00 0.00 90 1017.1
20260507071645 58 11 3.0 7.0 0.00 0.00 0.00 90 1017.3
20260507071145 58 21 3.0 7.0 0.00 0.00 0.00 90 1017.3
20260507070646 58 19 3.0 8.0 0.00 0.00 0.00 90 1017.1
20260507070145 58 35 3.0 8.0 0.00 0.00 0.00 90 1017.3
20260507065645 58 44 3.0 7.0 0.00 0.00 0.00 89 1017.3
20260507065145 58 25 4.0 8.0 0.00 0.00 0.00 89 1017.0
20260507064911 59 11 4.0 8.0 0.00 0.00 0.00 89 1016.9
20260507064141 59 26 3.0 7.0 0.00 0.00 0.00 89 1017.0
20260507063638 59 27 3.0 7.0 0.00 0.00 0.00 89 1017.2
20260507063135 59 36 3.0 7.0 0.00 0.00 0.00 89 1017.0
20260507062635 59 19 3.0 10.0 0.00 0.00 0.00 89 1017.0
20260507062134 59 51 4.0 10.0 0.00 0.00 0.00 89 1017.0
20260507061634 59 17 4.0 10.0 0.00 0.00 0.00 89 1017.1
20260507061134 59 32 4.0 10.0 0.00 0.00 0.00 89 1017.2
20260507060635 59 25 4.0 9.0 0.00 0.00 0.00 89 1017.1
20260507060133 59 46 4.0 9.0 0.00 0.00 0.00 89 1017.4
20260507055627 59 9 3.0 8.0 0.00 0.00 0.00 89 1017.4
20260507055121 59 9 4.0 9.0 0.00 0.00 0.00 89 1017.2
20260507054615 59 45 4.0 9.0 0.00 0.00 0.00 89 1017.0
20260507054109 60 38 4.0 9.0 0.00 0.00 0.00 89 1017.1
20260507053609 60 38 4.0 10.0 0.00 0.00 0.00 89 1017.1
20260507053110 60 22 4.0 10.0 0.00 0.00 0.00 88 1017.1
20260507052609 60 349 4.0 10.0 0.00 0.00 0.00 88 1017.0
20260507052332 60 40 4.0 10.0 0.00 0.00 0.00 88 1017.1
20260507051610 60 28 4.0 10.0 0.00 0.00 0.00 88 1017.2
20260507051109 60 346 5.0 10.0 0.00 0.00 0.00 88 1017.2
20260507050607 60 30 5.0 10.0 0.00 0.00 0.00 88 1017.2
20260507050107 60 30 5.0 10.0 0.00 0.00 0.00 88 1017.2
20260507045606 60 0 4.0 10.0 0.00 0.00 0.00 88 1017.1
20260507045106 60 15 4.0 10.0 0.00 0.00 0.00 88 1017.3
20260507044827 60 339 4.0 8.0 0.00 0.00 0.00 88 1017.1
20260507044106 60 55 4.0 8.0 0.00 0.00 0.00 88 1017.0
20260507043606 60 74 4.0 9.0 0.00 0.00 0.00 88 1017.0
20260507043106 60 24 5.0 9.0 0.00 0.00 0.00 88 1017.0
20260507042606 60 41 5.0 11.0 0.00 0.00 0.00 89 1017.3
20260507042106 60 0 5.0 11.0 0.00 0.00 0.00 88 1017.1
20260507041607 60 336 4.0 10.0 0.00 0.00 0.00 89 1017.1
20260507041557 60 325 3.0 8.0 0.00 0.00 0.00 89 1017.5
20260507040606 60 30 3.0 7.0 0.00 0.00 0.00 89 1017.3
20260507040328 60 14 2.0 7.0 0.00 0.00 0.00 89 1017.4
20260507035607 60 9 3.0 7.0 0.00 0.00 0.00 89 1017.3
20260507035105 60 19 4.0 9.0 0.00 0.00 0.00 89 1017.2
20260507034605 60 0 4.0 9.0 0.00 0.00 0.00 89 1017.0
20260507034106 60 0 4.0 9.0 0.00 0.00 0.00 89 1017.0
20260507033606 60 28 4.0 9.0 0.00 0.00 0.00 89 1017.0
20260507033105 60 38 3.0 9.0 0.00 0.00 0.00 89 1017.1
20260507032900 60 18 3.0 9.0 0.00 0.00 0.00 90 1016.9
20260507032105 60 9 4.0 10.0 0.00 0.00 0.00 89 1016.9
20260507031605 60 0 4.0 10.0 0.00 0.00 0.00 90 1016.8
20260507031105 60 9 4.0 11.0 0.00 0.00 0.00 90 1016.3
20260507030605 60 9 4.0 11.0 0.00 0.00 0.00 90 1016.6
20260507030337 60 13 4.0 9.0 0.00 0.00 0.00 90 1016.3
20260507025606 60 0 4.0 9.0 0.00 0.00 0.00 90 1016.6
20260507025107 60 25 3.0 9.0 0.00 0.00 0.00 90 1016.8
20260507024831 60 342 3.0 9.0 0.00 0.00 0.00 90 1016.9
20260507024105 60 341 4.0 8.0 0.00 0.00 0.00 90 1016.9
20260507023606 60 325 4.0 8.0 0.00 0.00 0.00 89 1016.8
20260507023106 60 13 4.0 8.0 0.00 0.00 0.00 89 1016.3
20260507022606 60 312 3.0 8.0 0.00 0.00 0.00 89 1016.2
20260507022105 60 12 3.0 8.0 0.00 0.00 0.00 89 1016.1
20260507021606 60 30 3.0 6.0 0.00 0.00 0.00 89 1016.2
20260507021106 60 350 3.0 6.0 0.00 0.00 0.00 89 1016.2
20260507020613 60 0 3.0 7.0 0.00 0.00 0.00 89 1016.1
20260507020348 60 346 3.0 7.0 0.00 0.00 0.00 89 1016.0
20260507015608 60 311 2.0 6.0 0.00 0.00 0.00 88 1016.0
20260507015108 60 0 1.0 8.0 0.00 0.00 0.00 88 1015.9
20260507014608 61 15 2.0 8.0 0.00 0.00 0.00 88 1015.8
20260507014113 61 340 3.0 8.0 0.00 0.00 0.00 88 1015.6
20260507013606 61 339 3.0 8.0 0.00 0.00 0.00 88 1015.6
20260507013112 61 22 3.0 8.0 0.00 0.00 0.00 88 1015.6
20260507012606 61 348 2.0 6.0 0.00 0.00 0.00 88 1015.6
20260507012330 61 319 3.0 7.0 0.00 0.00 0.00 88 1015.2
20260507012110 61 348 2.0 6.0 0.00 0.00 0.00 88 1015.3
20260507011102 61 14 2.0 7.0 0.00 0.00 0.00 88 1015.4
20260507010601 61 0 2.0 7.0 0.00 0.00 0.00 88 1015.4
20260507010330 61 317 3.0 8.0 0.00 0.00 0.00 88 1015.0
20260507005559 61 351 3.0 8.0 0.00 0.00 0.00 88 1015.0
20260507005059 61 335 3.0 8.0 0.00 0.00 0.00 88 1015.0
20260507004557 61 10 4.0 9.0 0.00 0.00 0.00 87 1014.7
20260507004058 61 10 4.0 12.0 0.00 0.00 0.00 87 1014.7
20260507003551 61 351 4.0 12.0 0.00 0.00 0.00 88 1015.0
20260507003045 61 342 4.0 9.0 0.00 0.00 0.00 88 1015.1
20260507002541 61 331 4.0 9.0 0.00 0.00 0.00 88 1014.6
20260507002041 61 25 4.0 10.0 0.00 0.00 0.00 87 1014.4
20260507001542 61 21 4.0 10.0 0.00 0.00 0.00 87 1014.7
20260507001040 61 331 4.0 10.0 0.00 0.00 0.00 87 1014.8
20260507000539 61 331 4.0 10.0 0.00 0.00 0.00 87 1014.5
20260507000259 61 351 4.0 9.0 0.00 0.00 0.00 87 1014.6
20260506235537 61 11 4.0 11.0 0.00 0.00 0.00 87 1014.7
20260506235037 61 22 5.0 11.0 0.00 0.00 0.00 87 1014.5
20260506234535 61 42 5.0 11.0 0.00 0.00 0.00 87 1014.4
20260506234301 61 348 5.0 11.0 0.00 0.00 0.00 87 1014.7
20260506233757 61 333 5.0 10.0 0.00 0.00 0.00 87 1014.7
20260506233035 61 346 5.0 11.0 0.00 0.00 0.00 87 1014.1
20260506232534 61 0 5.0 13.0 0.00 0.00 0.00 86 1014.4
20260506232034 61 321 5.0 13.0 0.00 0.00 0.00 87 1014.3
20260506231534 61 346 4.0 11.0 0.00 0.00 0.00 86 1014.5
20260506231034 61 350 4.0 11.0 0.00 0.00 0.00 86 1014.7
20260506230533 61 342 5.0 10.0 0.00 0.00 0.00 87 1014.6
20260506230255 61 13 5.0 10.0 0.00 0.00 0.00 86 1014.5
20260506225758 61 344 5.0 10.0 0.00 0.00 0.00 87 1014.4
20260506225021 61 327 4.0 11.0 0.00 0.00 0.00 87 1014.5
20260506224514 61 333 5.0 11.0 0.00 0.00 0.00 87 1014.4
20260506224234 60 351 5.0 11.0 0.00 0.00 0.00 88 1014.3
20260506223509 60 350 6.0 11.0 0.00 0.00 0.00 87 1014.3
20260506223010 61 19 6.0 11.0 0.00 0.00 0.00 87 1014.3
20260506222509 60 11 5.0 13.0 0.00 0.00 0.00 88 1014.3
20260506222009 60 330 5.0 13.0 0.00 0.00 0.00 88 1014.1
20260506221509 60 341 6.0 13.0 0.00 0.00 0.00 88 1014.2
20260506221009 60 351 5.0 13.0 0.00 0.00 0.00 88 1014.2
20260506220509 60 10 5.0 12.0 0.00 0.00 0.00 88 1014.3
20260506220009 60 338 6.0 12.0 0.00 0.00 0.00 88 1014.4
20260506215509 60 345 6.0 12.0 0.00 0.00 0.00 89 1014.5
20260506215010 60 44 6.0 12.0 0.00 0.00 0.00 88 1014.5
20260506214508 60 348 6.0 12.0 0.00 0.00 0.00 88 1014.4
20260506214008 60 341 6.0 12.0 0.00 0.00 0.00 89 1014.4
20260506213507 59 350 6.0 12.0 0.00 0.00 0.00 89 1014.3
20260506213007 59 329 6.0 12.0 0.00 0.00 0.00 88 1014.4
20260506212736 59 301 6.0 12.0 0.00 0.00 0.00 88 1014.5
20260506212007 60 323 6.0 12.0 0.00 0.00 0.00 88 1014.5
20260506211506 60 22 5.0 12.0 0.00 0.00 0.00 88 1014.5
20260506211003 60 12 6.0 12.0 0.00 0.00 0.00 88 1014.6
20260506210457 60 289 6.0 12.0 0.00 0.00 0.00 87 1014.6
20260506205951 60 287 6.0 12.0 0.00 0.00 0.00 87 1014.6
20260506205705 60 332 6.0 12.0 0.00 0.00 0.00 87 1014.7
20260506205218 60 328 5.0 12.0 0.00 0.00 0.00 87 1014.9
20260506204709 60 348 6.0 11.0 0.00 0.00 0.00 87 1014.8
20260506204212 60 348 6.0 11.0 0.00 0.00 0.00 87 1014.7
20260506203706 60 12 6.0 14.0 0.00 0.00 0.00 87 1014.6
20260506202943 60 338 6.0 14.0 0.00 0.00 0.00 88 1014.6
20260506202927 60 317 7.0 14.0 0.00 0.00 0.00 87 1014.8
20260506202209 60 344 7.0 15.0 0.00 0.00 0.00 87 1014.8
20260506201443 60 315 6.0 15.0 0.00 0.00 0.00 88 1014.8
20260506200942 60 325 6.0 16.0 0.00 0.00 0.00 88 1014.8
20260506200443 60 323 6.0 16.0 0.00 0.00 0.00 87 1014.7
20260506195943 60 314 6.0 16.0 0.00 0.00 0.00 87 1014.8
20260506195705 60 313 7.0 16.0 0.00 0.00 0.00 87 1014.6
20260506194943 61 333 8.0 17.0 0.00 0.00 0.00 86 1014.7
20260506194442 61 342 8.0 17.0 0.00 0.00 0.00 86 1014.8
20260506194201 61 315 8.0 16.0 0.00 0.00 0.00 86 1014.7
20260506193443 62 308 7.0 15.0 0.00 0.00 0.00 86 1014.6
20260506192939 62 9 6.0 13.0 0.00 0.00 0.00 86 1014.6
20260506192438 62 341 6.0 14.0 0.00 0.00 0.00 85 1014.8
20260506191939 63 351 6.0 14.0 0.00 0.00 0.00 85 1014.8
20260506191439 63 309 7.0 15.0 0.00 0.00 0.00 86 1014.7
20260506191206 63 294 7.0 15.0 0.00 0.00 0.00 85 1014.7
20260506190439 63 355 7.0 14.0 0.00 0.00 0.00 86 1014.8
20260506185939 63 342 7.0 14.0 0.00 0.00 0.00 86 1014.9
20260506185438 63 304 8.0 17.0 0.00 0.00 0.00 86 1014.8
20260506184938 63 265 7.0 17.0 0.00 0.00 0.00 86 1014.7
20260506184439 64 308 7.0 14.0 0.00 0.00 0.00 86 1014.7
20260506183937 64 337 6.0 13.0 0.00 0.00 0.00 87 1014.6
20260506183437 64 302 6.0 15.0 0.00 0.00 0.00 86 1014.6
20260506182936 65 27 7.0 15.0 0.00 0.00 0.00 86 1014.5
20260506182437 66 309 7.0 15.0 0.00 0.00 0.00 85 1014.7
20260506181936 67 351 8.0 14.0 0.00 0.00 0.00 84 1014.6
20260506181437 68 327 8.0 14.0 0.00 0.00 0.00 83 1014.6
20260506180937 69 11 7.0 14.0 0.00 0.00 0.00 81 1014.6
20260506180437 71 0 7.0 13.0 0.00 0.00 0.00 81 1014.4
20260506180157 71 295 7.0 13.0 0.00 0.00 0.00 81 1014.4
20260506175655 72 327 5.0 13.0 0.00 0.00 0.00 82 1014.1
20260506174937 71 340 4.0 8.0 0.00 0.00 0.00 82 1014.1
20260506174435 71 19 4.0 9.0 0.00 0.00 0.00 82 1014.0
20260506173934 70 23 4.0 9.0 0.00 0.00 0.00 82 1014.0
20260506173435 69 0 3.0 8.0 0.00 0.00 0.00 85 1014.0
20260506173153 68 0 3.0 8.0 0.00 0.00 0.00 85 1013.7
20260506172434 68 42 3.0 8.0 0.00 0.00 0.00 86 1013.7
20260506171934 67 88 4.0 8.0 0.00 0.00 0.00 87 1013.5
20260506171435 66 18 4.0 8.0 0.00 0.00 0.00 88 1013.5
20260506170933 66 9 3.0 8.0 0.00 0.00 0.00 88 1013.5
20260506170434 65 53 3.0 8.0 0.00 0.00 0.00 88 1013.6
20260506165935 65 0 3.0 10.0 0.00 0.00 0.00 89 1013.7
20260506165433 65 84 4.0 10.0 0.00 0.00 0.00 89 1013.6
20260506164935 64 15 4.0 8.0 0.00 0.00 0.00 90 1013.6
20260506164434 64 28 4.0 9.0 0.00 0.00 0.00 92 1013.6
20260506164157 63 80 4.0 9.0 0.00 0.00 0.00 92 1013.7
20260506163438 62 57 3.0 8.0 0.00 0.00 0.00 95 1014.0
20260506163434 62 10 4.0 8.0 0.00 0.00 0.00 95 1013.7
20260506162434 61 44 3.0 9.0 0.00 0.00 0.00 96 1014.1
20260506161933 60 75 3.0 9.0 0.00 0.00 0.00 96 1014.5
20260506161434 60 47 3.0 9.0 0.00 0.00 0.00 96 1014.7
20260506161204 59 13 4.0 12.0 0.00 0.00 0.00 95 1014.1
20260506160713 59 14 4.0 12.0 0.00 0.00 0.00 95 1014.1
20260506155935 59 49 5.0 12.0 0.00 0.00 0.00 94 1014.7
20260506155434 59 346 5.0 12.0 0.00 0.00 0.00 94 1015.1
20260506154934 60 0 5.0 13.0 0.00 0.00 0.00 94 1015.1
20260506154434 60 340 6.0 13.0 0.00 0.00 0.00 94 1014.9
20260506154205 60 9 6.0 13.0 0.00 0.00 0.00 94 1015.2
20260506153435 60 19 6.0 13.0 0.00 0.00 0.00 94 1015.1
20260506152934 61 306 6.0 13.0 0.00 0.00 0.00 94 1015.3
20260506152434 62 27 7.0 15.0 0.00 0.00 0.00 94 1015.2
20260506151935 62 335 7.0 16.0 0.00 0.00 0.00 94 1015.1
20260506151434 62 330 7.0 16.0 0.00 0.00 0.00 94 1015.0
20260506150934 63 341 7.0 18.0 0.00 0.00 0.00 95 1015.7
20260506150434 63 277 6.0 18.0 0.00 0.00 0.00 95 1015.2
20260506145934 63 15 5.0 17.0 0.00 0.00 0.00 95 1014.6
20260506145435 63 331 6.0 16.0 0.00 0.00 0.00 95 1014.0
20260506144934 63 350 8.0 13.0 0.00 0.00 0.00 95 1013.8
20260506144435 64 342 8.0 16.0 0.00 0.00 0.00 95 1013.7
20260506143934 64 11 6.0 16.0 0.00 0.00 0.00 94 1013.5
20260506143435 64 351 6.0 15.0 0.00 0.00 0.00 95 1013.4
20260506142930 64 10 7.0 15.0 0.00 0.00 0.00 94 1013.5
20260506142424 65 336 6.0 14.0 0.00 0.00 0.00 95 1013.6
20260506142146 65 9 5.0 14.0 0.00 0.00 0.00 95 1013.2